Tracking 22458 objects as of 2-Mar-2021
HD Live streaming from Space Station
objects crossing your sky now

GAOFEN 13

Track GAOFEN 13 now!


NORAD ID: 46610
Int'l Code: 2020-071A
Perigee: 35,779.3 km
Apogee: 35,811.0 km
Inclination: 1.7 °
Period: 1,436.2 minutes
Semi major axis: 42166 km
RCS: Unknown
Launch date: October 11, 2020
Source: People's Republic of China (PRC)
Launch site: Xichang Space Center, China (XSC)
aabbcc
Your satellite tracking list
Your tracking list is empty




NASA's NSSDC Master Catalog

Two Line Element Set (TLE):
1 46610U 20071A   21060.99171122 -.00000372  00000-0  00000-0 0  9991
2 46610   1.6657 280.2912 0003759 238.5146 115.9768  1.00266860  1514
Source of the keplerian elements: AFSPC